This demonstration page uses our WeatherBlox Daily Observations layout. Learn more.

Left ArrowRight Arrow

Hourly Observations for June 29, 2016

Temp ( °F °C ) Dew Point ( °F °C ) Humidity (%) Winds ( mph kmh ) Pressure ( in mb ) Visibility ( mi km ) Precip ( " mm )
12:43 am 00:43 Partly Cloudy with Nearby Thunderstorms 72 22.2 65 18.3 79 79 E 8 13 29.94 1014 10 16 0.15 3.81
12:51 am 00:51 Mostly Clear with Nearby Thunderstorms 73 22.8 66 18.9 79 79 ESE 9 15 29.91 1013 10 16 0.15 3.81
1:07 am 01:07 Mostly Clear 74 23.3 65 18.3 74 74 SE 7 11 29.91 1013 10 16 0.00 0.00
1:51 am 01:51 Mostly Cloudy 75 23.9 63 17.2 66 66 S 7 11 29.88 1012 10 16 0.00 0.00
2:51 am 02:51 Clear 75 23.9 65 18.3 71 71 ESE 6 9 29.88 1012 10 16 0.00 0.00
3:51 am 03:51 Clear 77 25 64 17.8 64 64 E 8 13 29.87 1012 10 16 0.00 0.00
4:51 am 04:51 Clear 76 24.4 63 17.2 64 64 E 8 13 29.88 1012 10 16 0.00 0.00
5:51 am 05:51 Sunny 77 25 63 17.2 62 62 E 8 13 29.89 1012 10 16 0.00 0.00
6:51 am 06:51 Sunny 78 25.6 63 17.2 60 60 E 12 19 29.92 1013 10 16 0.00 0.00
7:51 am 07:51 Sunny 83 28.3 63 17.2 51 51 E 10 17 29.93 1014 10 16 0.00 0.00
8:51 am 08:51 Sunny 85 29.4 61 16.1 45 45 SE 10 17 29.93 1014 10 16 0.00 0.00
9:51 am 09:51 Sunny 87 30.6 61 16.1 42 42 S 10 17 29.93 1013 10 16 0.00 0.00
10:51 am 10:51 Mostly Sunny 91 32.8 58 14.4 33 33 SSE 9 15 29.89 1012 10 16 0.00 0.00
11:51 am 11:51 Mostly Sunny 94 34.4 58 14.4 30 30 S 10 17 29.88 1012 10 16 0.00 0.00
12:51 pm 12:51 Mostly Sunny 96 35.6 57 13.9 27 27 undefined N/A 29.84 1011 10 16 0.00 0.00
1:51 pm 13:51 Mostly Cloudy 96 35.6 55 12.8 25 25 S 7 11 29.80 1009 10 16 0.00 0.00
2:51 pm 14:51 Partly Cloudy 100 37.8 54 12.2 21 21 NE 7 11 29.75 1008 10 16 0.00 0.00
3:51 pm 15:51 Mostly Sunny 99 37.2 51 10.6 20 20 undefined N/A 29.73 1007 10 16 0.00 0.00
4:51 pm 16:51 Partly Cloudy 97 36.1 52 11.1 22 22 S 9 15 29.72 1006 10 16 0.00 0.00
5:51 pm 17:51 Partly Cloudy 96 35.6 52 11.1 23 23 S 6 9 29.72 1006 10 16 0.00 0.00
6:51 pm 18:51 Mostly Cloudy 94 34.4 54 12.2 26 26 NE 7 11 29.74 1007 10 16 0.00 0.00
7:51 pm 19:51 Cloudy 90 32.2 55 12.8 31 31 NNW 8 13 29.75 1008 10 16 0.00 0.00
8:18 pm 20:18 Mostly Clear with Thunderstorms 89 31.7 56 13.3 33 33 NW 7 11 29.71 1006 10 16 0.00 0.00
8:51 pm 20:51 Cloudy with Thunderstorms 82 27.8 62 16.7 51 51 NNE 10 17 29.79 1009 4 6 0.00 0.03
9:21 pm 21:21 Mostly Cloudy with Nearby Thunderstorms 80 26.7 64 17.8 58 58 N 13 20 29.77 1008 10 16 0.06 1.52
9:44 pm 21:44 Cloudy with Light Rain 79 26.1 65 18.3 62 62 N 8 13 29.77 1008 10 16 0.06 1.52
9:51 pm 21:51 Cloudy with Nearby Thunderstorms 79 26.1 65 18.3 62 62 NW 12 19 29.81 1010 10 16 0.06 1.52
10:43 pm 22:43 Partly Cloudy 75 23.9 65 18.3 71 71 W 18 30 29.83 1010 10 16 0.00 0.03
10:51 pm 22:51 Partly Cloudy 73 22.8 65 18.3 76 76 W 15 24 29.85 1011 10 16 0.00 0.03
11:51 pm 23:51 Partly Cloudy 71 21.7 64 17.8 79 79 WNW 18 30 29.86 1011 10 16 0.00 0.00

Powered by AerisWeather